Weather History for KIFP - October, 2011

Change the Weather History Date:

Thursday, October 13, 2011

  Actual Average Record
Temperature  
Mean Temperature 85 °F -  
Max Temperature 95 °F 88 °F 104 °F (1992)
Min Temperature 75 °F 65 °F 39 °F (2008)
Cooling Degree Days 20    
Growing Degree Days 35 (Base 50)    
Moisture  
Dew Point 31 °F    
Average Humidity 15    
Maximum Humidity 21    
Minimum Humidity 9    
Precipitation  
Precipitation 0.00 in - - ()
Sea Level Pressure  
Sea Level Pressure 29.86 in    
Wind  
Wind Speed 19 mph (North)    
Max Wind Speed 25 mph    
Max Gust Speed 31 mph    
Visibility 10 miles    
Events      
Averages and records for this station are not official NWS values.
T = Trace of Precipitation, MM = Missing Value Source: NWS Daily Summary

Daily Weather History Graph

Daily Weather History Graph

Search for Another Location

Airport or City:

Trip Planner

Search our weather history database for the weather conditions in past years. The results will help you decide how hot, cold, wet, or windy it might be!

Date:

Astronomy

Oct. 13, 2011 Rise Set
Actual Time 6:42 AM MST 6:05 PM MST
Civil Twilight 6:16 AM MST 6:31 PM MST
Nautical Twilight 5:47 AM MST 7:00 PM MST
Astronomical Twilight 5:18 AM MST 7:30 PM MST
Moon 6:50 PM MST (10/13) 8:12 AM MST (10/13)
Length of Visible Light 12h 14m
Length of Day
11h 23m
Full, 97% of the Moon is Illuminated
Oct 13
Full
Oct 19
Last Quarter
Oct 26
New
Nov 2
First Quarter
Nov 10
Full

Hourly Weather History & Observations

Time (MST) Temp. Dew Point Humidity Pressure Visibility Wind Dir Wind Speed Gust Speed Precip Events Conditions
12:15 AM 80.6 °F 32.0 °F 17% 29.89 in 10.0 mi NNE 16.1 mph - N/A   Clear
12:35 AM 82.4 °F 32.0 °F 16% 29.88 in 10.0 mi North 19.6 mph - N/A   Clear
12:55 AM 82.4 °F 32.0 °F 16% 29.88 in 10.0 mi North 20.7 mph - N/A   Clear
1:15 AM 82.4 °F 32.0 °F 16% 29.88 in 10.0 mi NNE 24.2 mph 28.8 mph N/A   Clear
1:35 AM 82.4 °F 32.0 °F 16% 29.88 in 10.0 mi NNE 20.7 mph - N/A   Clear
1:55 AM 82.4 °F 32.0 °F 16% 29.89 in 10.0 mi North 23.0 mph - N/A   Clear
2:15 AM 82.4 °F 32.0 °F 16% 29.89 in 10.0 mi NNE 19.6 mph 26.5 mph N/A   Clear
2:35 AM 82.4 °F 32.0 °F 16% 29.88 in 10.0 mi NNE 20.7 mph 24.2 mph N/A   Clear
3:15 AM 80.6 °F 32.0 °F 17% 29.88 in 10.0 mi North 21.9 mph - N/A   Clear
3:35 AM 80.6 °F 32.0 °F 17% 29.88 in 10.0 mi NNE 21.9 mph 27.6 mph N/A   Clear
3:55 AM 80.6 °F 32.0 °F 17% 29.88 in 10.0 mi NNE 19.6 mph - N/A   Clear
4:15 AM 80.6 °F 32.0 °F 17% 29.87 in 10.0 mi North 24.2 mph - N/A   Clear
4:35 AM 78.8 °F 32.0 °F 18% 29.87 in 10.0 mi North 23.0 mph 26.5 mph N/A   Clear
4:55 AM 78.8 °F 32.0 °F 18% 29.88 in 10.0 mi NNE 21.9 mph - N/A   Clear
5:15 AM 77.0 °F 32.0 °F 19% 29.88 in 10.0 mi North 18.4 mph - N/A   Clear
5:35 AM 77.0 °F 32.0 °F 19% 29.88 in 10.0 mi NNE 17.3 mph 23.0 mph N/A   Clear
5:55 AM 77.0 °F 32.0 °F 19% 29.89 in 10.0 mi North 20.7 mph 24.2 mph N/A   Clear
6:35 AM 77.0 °F 32.0 °F 19% 29.90 in 10.0 mi NNE 17.3 mph - N/A   Clear
6:55 AM 77.0 °F 32.0 °F 19% 29.90 in 10.0 mi North 17.3 mph 24.2 mph N/A   Clear
7:15 AM 77.0 °F 32.0 °F 19% 29.91 in 10.0 mi NNE 17.3 mph 23.0 mph N/A   Clear
7:35 AM 75.2 °F 32.0 °F 21% 29.91 in 10.0 mi North 15.0 mph - N/A   Clear
7:55 AM 77.0 °F 32.0 °F 19% 29.92 in 10.0 mi NNE 12.7 mph - N/A   Clear
8:15 AM 77.0 °F 32.0 °F 19% 29.92 in 10.0 mi North 16.1 mph - N/A   Clear
8:35 AM 77.0 °F 32.0 °F 19% 29.92 in 10.0 mi North 19.6 mph 23.0 mph N/A   Clear
8:55 AM 78.8 °F 32.0 °F 18% 29.92 in 10.0 mi North 17.3 mph 24.2 mph N/A   Clear
9:15 AM 80.6 °F 32.0 °F 17% 29.92 in 10.0 mi North 19.6 mph 27.6 mph N/A   Clear
9:35 AM 82.4 °F 32.0 °F 16% 29.92 in 10.0 mi North 18.4 mph 25.3 mph N/A   Clear
9:55 AM 82.4 °F 32.0 °F 16% 29.91 in 10.0 mi North 20.7 mph 31.1 mph N/A   Clear
10:15 AM 84.2 °F 32.0 °F 15% 29.91 in 10.0 mi NNE 21.9 mph 26.5 mph N/A   Clear
10:35 AM 84.2 °F 32.0 °F 15% 29.91 in 10.0 mi North 24.2 mph 27.6 mph N/A   Clear
10:55 AM 84.2 °F 32.0 °F 15% 29.90 in 10.0 mi North 25.3 mph 29.9 mph N/A   Clear
11:15 AM 86.0 °F 32.0 °F 14% 29.90 in 10.0 mi North 25.3 mph 29.9 mph N/A   Clear
11:35 AM 86.0 °F 32.0 °F 14% 29.89 in 10.0 mi NNE 20.7 mph 27.6 mph N/A   Clear
11:55 AM 87.8 °F 32.0 °F 14% 29.88 in 10.0 mi North 18.4 mph 25.3 mph N/A   Clear
12:15 PM 89.6 °F 32.0 °F 13% 29.87 in 10.0 mi North 20.7 mph 25.3 mph N/A   Clear
12:35 PM 89.6 °F 32.0 °F 13% 29.86 in 10.0 mi North 21.9 mph 28.8 mph N/A   Clear
12:55 PM 91.4 °F 32.0 °F 12% 29.85 in 10.0 mi North 16.1 mph - N/A   Clear
1:15 PM 91.4 °F 32.0 °F 12% 29.83 in 10.0 mi North 18.4 mph 24.2 mph N/A   Clear
1:35 PM 91.4 °F 32.0 °F 12% 29.82 in 10.0 mi North 16.1 mph - N/A   Clear
1:55 PM 93.2 °F 30.2 °F 11% 29.81 in 10.0 mi North 15.0 mph 20.7 mph N/A   Clear
2:15 PM 93.2 °F 28.4 °F 10% 29.80 in 10.0 mi North 18.4 mph 24.2 mph N/A   Clear
2:35 PM 93.2 °F 28.4 °F 10% 29.79 in 10.0 mi North 16.1 mph - N/A   Clear
2:55 PM 95.0 °F 30.2 °F 10% 29.79 in 10.0 mi North 15.0 mph - N/A   Clear
3:15 PM 95.0 °F 30.2 °F 10% 29.78 in 10.0 mi North 16.1 mph - N/A   Clear
3:35 PM 95.0 °F 30.2 °F 10% 29.77 in 10.0 mi North 16.1 mph - N/A   Clear
3:55 PM 95.0 °F 30.2 °F 10% 29.77 in 10.0 mi North 13.8 mph - N/A   Clear
4:15 PM 95.0 °F 28.4 °F 9% 29.76 in 10.0 mi NNW 12.7 mph - N/A   Clear
4:35 PM 95.0 °F 30.2 °F 10% 29.76 in 10.0 mi North 11.5 mph - N/A   Clear
4:55 PM 95.0 °F 28.4 °F 9% 29.76 in 10.0 mi North 11.5 mph - N/A   Clear
5:15 PM 95.0 °F 32.0 °F 11% 29.76 in 10.0 mi North 6.9 mph - N/A   Clear
5:35 PM 93.2 °F 28.4 °F 10% 29.76 in 10.0 mi North 10.4 mph - N/A   Clear
5:55 PM 93.2 °F 28.4 °F 10% 29.76 in 10.0 mi NNE 10.4 mph - N/A   Clear
6:15 PM 91.4 °F 28.4 °F 10% 29.76 in 10.0 mi NNE 10.4 mph - N/A   Clear
6:35 PM 89.6 °F 30.2 °F 12% 29.76 in 10.0 mi NNE 10.4 mph - N/A   Clear
6:55 PM 87.8 °F 32.0 °F 14% 29.77 in 10.0 mi NNE 4.6 mph - N/A   Clear
7:15 PM 86.0 °F 33.8 °F 15% 29.78 in 10.0 mi Calm Calm - N/A   Clear
7:35 PM 86.0 °F 33.8 °F 15% 29.78 in 10.0 mi Calm Calm - N/A   Clear
7:55 PM 84.2 °F 32.0 °F 15% 29.79 in 10.0 mi Calm Calm - N/A   Clear
8:15 PM 84.2 °F 32.0 °F 15% 29.79 in 10.0 mi NE 3.5 mph - N/A   Clear
8:35 PM 82.4 °F 32.0 °F 16% 29.79 in 10.0 mi NE 5.8 mph - N/A   Clear
8:55 PM 80.6 °F 32.0 °F 17% 29.80 in 10.0 mi NE 3.5 mph - N/A   Clear
9:15 PM 82.4 °F 32.0 °F 16% 29.80 in 10.0 mi Calm Calm - N/A   Clear
9:35 PM 82.4 °F 33.8 °F 17% 29.81 in 10.0 mi North 3.5 mph - N/A   Clear
9:55 PM 80.6 °F 33.8 °F 18% 29.80 in 10.0 mi NNE 4.6 mph - N/A   Clear
10:35 PM 77.0 °F 37.4 °F 24% 29.81 in 10.0 mi NNE 5.8 mph - N/A   Clear
10:55 PM 77.0 °F 33.8 °F 21% 29.81 in 10.0 mi NE 4.6 mph - N/A   Clear
11:15 PM 77.0 °F 35.6 °F 22% 29.81 in 10.0 mi NNW 5.8 mph - N/A   Clear
11:35 PM 77.0 °F 37.4 °F 24% 29.81 in 10.0 mi North 5.8 mph - N/A   Clear
11:55 PM 75.2 °F 37.4 °F 25% 29.81 in 10.0 mi NNE 3.5 mph - N/A   Clear